Regional Weather Roundup
Issued by NWS Albany, NY

Home | Current Version | Previous Version | Text Only | Print | Product List | Glossary On
Versions: 1 2 3 4 5 6 7 8 9 10 11 12 13 14 15 16 17 18 19 20 21 22 23 24 25 26 27
000
ASUS41 KALY 221410
RWRALY

NEW YORK STATE HOURLY WEATHER ROUNDUP
NATIONAL WEATHER SERVICE ALBANY NY
900 AM EST WED FEB 22 2017

NOTE: "FAIR" INDICATES FEW OR NO CLOUDS BELOW 12,000 FEET WITH NO
SIGNIFICANT WEATHER AND/OR NO OBSTRUCTIONS TO VISIBILITY.

NYZ032-033-038>043-046>054-057>066-NYZ062>081-082-084-221500-
EAST


CITY           SKY/WX    TMP DP  RH WIND       PRES   REMARKS
ALBANY         PTSUNNY   42  31  64 S8        30.01F
GLENS FALLS    FAIR      42  30  62 SW7       30.01F
POUGHKEEPSIE   CLOUDY    41  34  76 SE5       30.02F
NEWBURGH       CLOUDY    43  36  75 CALM      30.03S
MONTGOMERY     CLOUDY    43  35  73 SW7       30.00F
WHITE PLAINS   PTSUNNY   43  34  70 W5        30.02F
ISLIP          CLOUDY    44  39  82 SW7       30.05F
NEW YORK CITY  CLOUDY    47  36  65 S8        30.04F
CENTRAL PARK   FAIR      45  36  70 SW3       30.06F
$$

NYZ005>009-017-018-044>046-055-056-221500-
CENTRAL


CITY           SKY/WX    TMP DP  RH WIND       PRES   REMARKS
FULTON         CLOUDY    43  32  65 VRB3      29.95F
SYRACUSE       PTSUNNY   43  33  68 NE5       29.95R
ROME           FAIR      41  32  70 E7        29.98F
ELMIRA         FAIR      42  32  67 S5        29.95F
BINGHAMTON     FAIR      39  31  72 SE5       29.95F
MONTICELLO     FAIR      39  34  81 CALM      30.00F
$$

NYZ026>034-041>043-087-221500-
NORTH


CITY           SKY/WX    TMP DP  RH WIND       PRES   REMARKS
WATERTOWN      CLOUDY    46  35  65 CALM      29.93F
FORT DRUM      NOT AVBL
OGDENSBURG     CLOUDY    40  34  80 CALM      29.96S
MASSENA        FAIR      38  32  79 CALM      29.98S
SARANAC LAKE   FAIR      39  35  86 SW9       29.91F WCI  33
PLATTSBURGH    FAIR      41  30  65 SE8       29.97S
$$

NYZ001>004-010>016-019>021-085-221500-
WEST


CITY           SKY/WX    TMP DP  RH WIND       PRES   REMARKS
NIAGARA FALLS  FAIR      45  43  93 SE3       29.89F FOG
BUFFALO        FAIR      48  38  68 CALM      29.90F
DUNKIRK        CLOUDY    54  44  69 S10       29.90F
JAMESTOWN      CLOUDY    46  36  66 S8        29.92S
WELLSVILLE     PTSUNNY   51  37  58 CALM      29.94S
ROCHESTER      FAIR      47  40  76 CALM      29.92F
PENN YAN       CLOUDY    47  32  56 S8        29.94R
$$

             KEY
       WCI = WIND CHILL INDEX
       VSB = VISIBILITY
       HX  = HEAT INDEX
$$




USA.gov is the U.S. government's official web portal to all federal, state and local government web resources and services.